Swisher, IA

2:31 AM CST on February 14, 2016 (GMT -0600)
The Eastern Iowa Airport

Weather History for KCID - January, 2014

Change the Weather History Date:

Friday, January 17, 2014

  Actual Average Record
Temperature  
Mean Temperature 10 °F 19 °F  
Max Temperature 16 °F 28 °F 58 °F (1894)
Min Temperature 4 °F 11 °F -23 °F (1982)
Degree Days  
Heating Degree Days 55 46  
Month to date heating degree days 876 777  
Since 1 July heating degree days 3794 3516  
Cooling Degree Days 0 0  
Month to date cooling degree days 0 0  
Year to date cooling degree days 0 0  
Moisture  
Dew Point 2 °F    
Average Humidity 71    
Maximum Humidity 80    
Minimum Humidity 61    
Precipitation  
Precipitation T in 0.03 in 0.24 in (1990)
Month to date precipitation 0.14 0.50  
Year to date precipitation 0.14 0.50  
Sea Level Pressure  
Sea Level Pressure 30.00 in    
Wind  
Wind Speed 14 mph (WNW)    
Max Wind Speed 24 mph    
Max Gust Speed 31 mph    
Visibility 10 miles    
Events Snow    
T = Trace of Precipitation, MM = Missing Value Source: NWS Daily Summary

Daily Weather History Graph

Daily Weather History Graph

Search for Another Location

Airport or City:

Trip Planner

Search our weather history database for the weather conditions in past years. The results will help you decide how hot, cold, wet, or windy it might be!

Date:

Astronomy

Jan. 17, 2014 Rise Set
Actual Time 7:31 AM CST 5:03 PM CST
Civil Twilight 7:00 AM CST 5:33 PM CST
Nautical Twilight 6:26 AM CST 6:08 PM CST
Astronomical Twilight 5:52 AM CST 6:41 PM CST
Moon 6:52 PM CST (1/17) 7:57 AM CST (1/17)
Length of Visible Light 10h 33m
Length of Day
9h 32m
Full, 98% of the Moon is Illuminated
Jan 17
Full
Jan 23
Last Quarter
Jan 30
New
Feb 6
First Quarter
Feb 14
Full

Hourly Weather History & Observations

Time (CST) Temp. Windchill Dew Point Humidity Pressure Visibility Wind Dir Wind Speed Gust Speed Precip Events Conditions
12:52 AM 6.1 °F -14.8 °F -2.0 °F 69% 29.89 in 10.0 mi NW 21.9 mph 28.8 mph N/A   Overcast
1:52 AM 5.0 °F -12.3 °F -2.0 °F 73% 29.91 in 10.0 mi WNW 13.8 mph - N/A   Partly Cloudy
2:52 AM 3.9 °F -14.3 °F -2.0 °F 76% 29.92 in 10.0 mi NW 15.0 mph - N/A   Clear
3:52 AM 6.1 °F -11.6 °F -0.9 °F 73% 29.92 in 10.0 mi NW 15.0 mph - N/A   Overcast
4:52 AM 7.0 °F -11.6 °F -0.0 °F 73% 29.93 in 10.0 mi NW 17.3 mph - N/A   Overcast
5:52 AM 8.1 °F -11.7 °F -0.0 °F 70% 29.94 in 10.0 mi NW 20.7 mph 26.5 mph N/A   Overcast
7:52 AM 8.1 °F -12.2 °F 1.0 °F 73% 29.97 in 10.0 mi WNW 21.9 mph 27.6 mph N/A   Overcast
8:52 AM 8.1 °F -11.2 °F 1.0 °F 73% 29.99 in 5.0 mi NW 19.6 mph - 0.00 in Snow Light Snow
9:52 AM 9.0 °F -10.5 °F 1.9 °F 73% 30.01 in 3.0 mi WNW 20.7 mph 25.3 mph 0.00 in Snow Light Snow
10:52 AM 9.0 °F -9.5 °F 1.0 °F 70% 30.03 in 9.0 mi WNW 18.4 mph - 0.00 in Snow Light Snow
11:52 AM 10.9 °F -7.9 °F 1.9 °F 67% 30.02 in 10.0 mi NW 20.7 mph 28.8 mph 0.00 in   Scattered Clouds
12:52 PM 12.0 °F -5.6 °F 3.0 °F 67% 30.01 in 10.0 mi NW 18.4 mph - N/A   Partly Cloudy
1:37 PM 12.2 °F -5.8 °F 3.2 °F 67% 29.97 in 10.0 mi NW 19.6 mph - N/A   Mostly Cloudy
1:49 PM 12.2 °F -4.8 °F 3.2 °F 67% 29.97 in 10.0 mi WNW 17.3 mph - N/A   Scattered Clouds
1:52 PM 14.0 °F -2.5 °F 3.9 °F 64% 30.02 in 10.0 mi NW 17.3 mph - N/A   Scattered Clouds
2:52 PM 15.1 °F -1.1 °F 5.0 °F 64% 30.03 in 10.0 mi WNW 17.3 mph - N/A   Clear
3:52 PM 15.1 °F -0.6 °F 6.1 °F 68% 30.04 in 10.0 mi WNW 16.1 mph - N/A   Clear
4:52 PM 15.1 °F 1.1 °F 6.1 °F 68% 30.05 in 10.0 mi NW 12.7 mph - N/A   Clear
5:52 PM 12.9 °F -0.2 °F 6.1 °F 74% 30.05 in 10.0 mi NW 10.4 mph - N/A   Clear
6:52 PM 12.0 °F 4.1 °F 5.0 °F 73% 30.06 in 10.0 mi WNW 4.6 mph - N/A   Clear
7:52 PM 8.1 °F - 3.0 °F 80% 30.07 in 10.0 mi Calm Calm - N/A   Clear
8:52 PM 8.1 °F - 3.9 °F 83% 30.05 in 10.0 mi Calm Calm - N/A   Clear
9:52 PM 6.1 °F -0.9 °F 1.0 °F 80% 30.04 in 10.0 mi WSW 3.5 mph - N/A   Clear
10:52 PM 8.1 °F -2.0 °F 3.0 °F 80% 30.02 in 10.0 mi West 5.8 mph - N/A   Clear
11:52 PM 5.0 °F - 1.0 °F 84% 29.98 in 10.0 mi Calm Calm - N/A   Clear